Total_Precipitation_Accumulation
1.31 1.32 1.32 1.26 1.22 1.21 1.25 1.22 1.11 0.98 0.86 0.77 0.70 0.70 0.69 0.64 0.64 0.70 0.71 0.73 0.82 0.85 0.80 0.82 0.88 0.95 1.04 1.11 1.22 1.36 1.55 1.71 1.74 1.47 1.22 1.14 1.19 1.25 1.30 1.21 1.12 1.04 0.94
1.13 1.11 1.11 1.01 0.97 0.96 0.95 0.94 0.90 0.89 0.85 0.79 0.74 0.71 0.64 0.59 0.59 0.61 0.61 0.60 0.64 0.69 0.71 0.74 0.73 0.76 0.88 0.96 1.06 1.19 1.33 1.46 1.59 1.54 1.31 1.20 1.19 1.28 1.35 1.34 1.14 0.97 0.86
0.85 0.88 0.94 0.89 0.83 0.82 0.78 0.78 0.81 0.82 0.81 0.76 0.73 0.68 0.62 0.60 0.61 0.60 0.58 0.56 0.53 0.55 0.60 0.66 0.69 0.77 0.86 0.94 1.04 1.09 1.17 1.22 1.40 1.45 1.32 1.25 1.25 1.30 1.41 1.36 1.14 1.07 0.79
0.68 0.68 0.75 0.78 0.75 0.72 0.73 0.73 0.69 0.68 0.69 0.64 0.59 0.59 0.59 0.56 0.51 0.48 0.47 0.49 0.50 0.49 0.49 0.53 0.59 0.69 0.79 0.91 0.97 1.04 1.15 1.25 1.35 1.43 1.40 1.39 1.39 1.37 1.42 1.46 1.28 1.10 0.87
0.69 0.72 0.73 0.72 0.67 0.68 0.71 0.70 0.62 0.57 0.54 0.52 0.50 0.51 0.51 0.47 0.42 0.40 0.41 0.39 0.44 0.46 0.48 0.48 0.46 0.51 0.63 0.71 0.77 0.92 1.15 1.33 1.36 1.41 1.42 1.44 1.45 1.51 1.45 1.36 1.31 1.15 0.93
0.80 0.83 0.79 0.76 0.73 0.70 0.67 0.64 0.59 0.55 0.52 0.49 0.52 0.48 0.42 0.32 0.32 0.34 0.34 0.38 0.44 0.49 0.56 0.53 0.43 0.41 0.46 0.52 0.59 0.70 0.91 1.17 1.32 1.39 1.41 1.41 1.41 1.47 1.44 1.37 1.38 1.35 1.20
0.83 0.80 0.78 0.77 0.73 0.63 0.56 0.59 0.59 0.58 0.54 0.50 0.52 0.47 0.41 0.30 0.26 0.25 0.27 0.33 0.44 0.53 0.60 0.60 0.49 0.41 0.50 0.56 0.56 0.58 0.69 0.87 1.15 1.37 1.45 1.34 1.41 1.49 1.52 1.52 1.44 1.44 1.35
0.79 0.75 0.69 0.68 0.68 0.58 0.56 0.59 0.57 0.58 0.59 0.53 0.49 0.49 0.48 0.30 0.27 0.27 0.29 0.39 0.49 0.51 0.50 0.54 0.60 0.64 0.56 0.54 0.58 0.73 0.89 0.98 1.06 1.13 1.32 1.34 1.36 1.37 1.33 1.36 1.38 1.39 1.27
0.72 0.68 0.60 0.54 0.53 0.53 0.52 0.55 0.59 0.61 0.63 0.55 0.49 0.52 0.51 0.38 0.31 0.31 0.34 0.44 0.51 0.49 0.44 0.44 0.48 0.57 0.55 0.60 0.74 0.98 1.18 1.34 1.20 1.17 1.24 1.38 1.39 1.24 1.07 1.13 1.37 1.45 1.29
0.58 0.49 0.47 0.48 0.47 0.52 0.55 0.57 0.54 0.59 0.64 0.54 0.45 0.46 0.43 0.36 0.30 0.31 0.36 0.42 0.50 0.50 0.51 0.50 0.54 0.55 0.58 0.72 0.86 1.15 1.38 1.48 1.30 1.23 1.37 1.50 1.44 1.32 1.24 1.27 1.46 1.43 1.29
0.38 0.37 0.40 0.41 0.42 0.43 0.53 0.57 0.54 0.53 0.57 0.56 0.49 0.45 0.38 0.29 0.25 0.28 0.31 0.35 0.42 0.50 0.54 0.61 0.66 0.66 0.64 0.75 0.92 1.12 1.34 1.40 1.34 1.31 1.34 1.39 1.41 1.42 1.32 1.29 1.31 1.26 1.24
0.33 0.35 0.37 0.36 0.31 0.32 0.47 0.50 0.50 0.55 0.51 0.53 0.57 0.54 0.41 0.31 0.22 0.19 0.21 0.26 0.34 0.51 0.62 0.65 0.66 0.67 0.69 0.83 0.97 1.18 1.37 1.48 1.39 1.26 1.16 1.13 1.15 1.21 1.18 1.06 1.00 0.98 1.01
0.35 0.39 0.37 0.32 0.31 0.31 0.38 0.41 0.42 0.49 0.48 0.44 0.48 0.46 0.39 0.33 0.23 0.14 0.14 0.18 0.26 0.38 0.54 0.69 0.69 0.64 0.78 1.07 1.25 1.36 1.52 1.59 1.42 1.17 1.08 1.01 0.95 0.94 0.92 0.93 0.90 0.83 0.79
0.41 0.41 0.37 0.38 0.36 0.30 0.29 0.27 0.29 0.32 0.35 0.40 0.41 0.39 0.37 0.33 0.23 0.17 0.19 0.22 0.25 0.31 0.44 0.64 0.76 0.80 0.96 1.25 1.47 1.57 1.63 1.56 1.33 1.12 1.00 0.92 0.85 0.84 0.86 0.85 0.87 0.83 0.84
0.39 0.34 0.31 0.31 0.30 0.29 0.24 0.19 0.18 0.19 0.20 0.26 0.31 0.32 0.33 0.28 0.20 0.20 0.22 0.24 0.27 0.32 0.39 0.57 0.77 0.87 1.08 1.30 1.44 1.45 1.40 1.31 1.23 1.06 0.93 0.86 0.85 0.84 0.84 0.80 0.80 0.75 0.78
0.35 0.33 0.28 0.26 0.24 0.20 0.21 0.20 0.15 0.14 0.15 0.17 0.20 0.21 0.21 0.20 0.18 0.17 0.18 0.24 0.30 0.37 0.43 0.66 0.85 0.95 1.11 1.23 1.31 1.28 1.20 1.11 1.03 0.95 0.89 0.81 0.79 0.78 0.79 0.74 0.69 0.67 0.71
0.25 0.26 0.22 0.18 0.18 0.20 0.21 0.26 0.27 0.20 0.17 0.17 0.16 0.17 0.18 0.17 0.16 0.16 0.17 0.23 0.28 0.36 0.49 0.70 0.87 1.00 1.11 1.14 1.15 1.11 1.05 1.00 0.91 0.84 0.80 0.76 0.71 0.69 0.69 0.64 0.59 0.60 0.59
0.18 0.16 0.15 0.15 0.16 0.19 0.17 0.16 0.21 0.28 0.29 0.24 0.17 0.15 0.15 0.15 0.16 0.18 0.20 0.24 0.33 0.39 0.56 0.73 0.85 0.89 0.96 1.00 0.99 0.98 0.95 0.88 0.81 0.77 0.79 0.77 0.69 0.63 0.57 0.55 0.53 0.52 0.51
0.15 0.14 0.12 0.12 0.11 0.12 0.10 0.09 0.11 0.16 0.22 0.24 0.21 0.17 0.16 0.16 0.20 0.23 0.25 0.30 0.41 0.48 0.58 0.69 0.75 0.79 0.82 0.85 0.85 0.83 0.82 0.78 0.72 0.69 0.70 0.72 0.71 0.63 0.55 0.48 0.44 0.38 0.37
0.11 0.11 0.10 0.09 0.09 0.09 0.08 0.08 0.09 0.11 0.15 0.19 0.22 0.21 0.20 0.29 0.36 0.33 0.29 0.31 0.38 0.46 0.54 0.62 0.65 0.64 0.65 0.68 0.66 0.61 0.62 0.63 0.61 0.62 0.62 0.62 0.63 0.58 0.50 0.43 0.38 0.35 0.34
0.09 0.08 0.08 0.07 0.07 0.06 0.06 0.08 0.08 0.10 0.13 0.17 0.17 0.16 0.24 0.32 0.42 0.39 0.37 0.38 0.42 0.45 0.47 0.51 0.54 0.54 0.50 0.49 0.51 0.51 0.53 0.57 0.58 0.58 0.56 0.54 0.52 0.46 0.40 0.35 0.31 0.29 0.27
0.08 0.07 0.07 0.07 0.06 0.05 0.05 0.06 0.07 0.07 0.10 0.13 0.14 0.14 0.24 0.30 0.38 0.39 0.41 0.44 0.46 0.48 0.47 0.46 0.44 0.46 0.48 0.48 0.48 0.48 0.50 0.51 0.53 0.55 0.52 0.49 0.46 0.40 0.34 0.29 0.27 0.27 0.27
0.07 0.07 0.07 0.06 0.06 0.05 0.04 0.05 0.05 0.06 0.07 0.09 0.12 0.15 0.20 0.30 0.37 0.44 0.47 0.49 0.49 0.46 0.42 0.40 0.42 0.44 0.43 0.42 0.41 0.42 0.41 0.42 0.47 0.51 0.51 0.45 0.39 0.34 0.29 0.26 0.26 0.28 0.28
0.07 0.05 0.05 0.05 0.04 0.04 0.04 0.04 0.04 0.05 0.06 0.08 0.11 0.14 0.19 0.26 0.33 0.42 0.49 0.53 0.55 0.54 0.48 0.44 0.43 0.43 0.40 0.37 0.37 0.37 0.36 0.36 0.36 0.39 0.39 0.35 0.30 0.26 0.24 0.24 0.23 0.24 0.25
0.07 0.06 0.06 0.05 0.04 0.03 0.03 0.04 0.05 0.06 0.06 0.07 0.09 0.13 0.16 0.19 0.25 0.33 0.40 0.46 0.50 0.55 0.55 0.53 0.50 0.44 0.38 0.33 0.30 0.29 0.34 0.35 0.30 0.29 0.33 0.30 0.23 0.21 0.22 0.22 0.22 0.22 0.22
0.06 0.06 0.06 0.05 0.04 0.03 0.03 0.04 0.05 0.05 0.05 0.06 0.09 0.10 0.11 0.14 0.19 0.24 0.27 0.30 0.36 0.43 0.49 0.55 0.56 0.47 0.36 0.30 0.29 0.30 0.27 0.21 0.17 0.18 0.27 0.29 0.24 0.21 0.19 0.19 0.19 0.19 0.21